Météo par heure à Alloza

Ce jour, 14 Mai, Vendredi

Heure Température Précipitation Vent Pression Humidité
00:00 +10°C° 0 mm 7 m/s 700 mmHg 83%
01:00 +10°C° 0.3 mm 7 m/s 700 mmHg 83%
02:00 +9°C° 0.3 mm 7 m/s 700 mmHg 83%
03:00 +9°C° 0.3 mm 7 m/s 699 mmHg 83%
04:00 +8°C° 0.1 mm 7 m/s 700 mmHg 80%
05:00 +7°C° 0.1 mm 8 m/s 701 mmHg 77%
06:00 +6°C° 0.1 mm 8 m/s 701 mmHg 74%
07:00 +7°C° 0 mm 8 m/s 701 mmHg 68%
08:00 +8°C° 0 mm 9 m/s 702 mmHg 62%
09:00 +9°C° 0 mm 10 m/s 702 mmHg 56%
10:00 +12°C° 0 mm 10 m/s 702 mmHg 50%
11:00 +13°C° 0 mm 10 m/s 702 mmHg 45%
12:00 +15°C° 0 mm 9 m/s 702 mmHg 39%
13:00 +16°C° 0 mm 9 m/s 702 mmHg 37%
14:00 +17°C° 0 mm 8 m/s 702 mmHg 35%
15:00 +17°C° 0 mm 7 m/s 702 mmHg 33%
16:00 +17°C° 0 mm 6 m/s 702 mmHg 35%
17:00 +17°C° 0 mm 6 m/s 702 mmHg 36%
18:00 +17°C° 0 mm 5 m/s 702 mmHg 38%
19:00 +15°C° 0 mm 4 m/s 702 mmHg 42%
20:00 +14°C° 0 mm 3 m/s 702 mmHg 46%
21:00 +14°C° 0 mm 1 m/s 702 mmHg 51%
22:00 +14°C° 0 mm 2 m/s 701 mmHg 50%
23:00 +14°C° 0 mm 2 m/s 701 mmHg 50%

Demain, 15 Mai, Samedi

Heure Température Précipitation Vent Pression Humidité
00:00 +14°C° 0 mm 2 m/s 701 mmHg 50%
01:00 +14°C° 0 mm 2 m/s 701 mmHg 50%
02:00 +13°C° 0 mm 3 m/s 700 mmHg 51%
03:00 +13°C° 0 mm 3 m/s 700 mmHg 51%
04:00 +13°C° 0 mm 3 m/s 700 mmHg 51%
05:00 +14°C° 0 mm 3 m/s 701 mmHg 51%
06:00 +14°C° 0 mm 3 m/s 701 mmHg 51%
07:00 +16°C° 0 mm 5 m/s 701 mmHg 46%
08:00 +19°C° 0 mm 6 m/s 701 mmHg 41%
09:00 +22°C° 0 mm 8 m/s 701 mmHg 35%
10:00 +23°C° 0 mm 8 m/s 701 mmHg 35%
11:00 +24°C° 0 mm 9 m/s 701 mmHg 35%
12:00 +26°C° 0 mm 10 m/s 701 mmHg 35%
13:00 +27°C° 0 mm 10 m/s 701 mmHg 35%
14:00 +27°C° 0 mm 10 m/s 701 mmHg 35%
15:00 +28°C° 0 mm 10 m/s 701 mmHg 35%
16:00 +27°C° 0 mm 10 m/s 700 mmHg 38%
17:00 +26°C° 0 mm 9 m/s 700 mmHg 41%
18:00 +24°C° 0 mm 9 m/s 700 mmHg 44%
19:00 +23°C° 0 mm 7 m/s 701 mmHg 49%
20:00 +21°C° 0 mm 6 m/s 701 mmHg 54%
21:00 +20°C° 0 mm 5 m/s 701 mmHg 59%
22:00 +19°C° 0 mm 5 m/s 701 mmHg 61%
23:00 +19°C° 0 mm 5 m/s 701 mmHg 64%

Après-demain, 16 Mai, Dimanche

Heure Température Précipitation Vent Pression Humidité
00:00 +17°C° 0 mm 5 m/s 701 mmHg 66%
01:00 +17°C° 0 mm 5 m/s 700 mmHg 66%
02:00 +18°C° 0 mm 4 m/s 700 mmHg 65%
03:00 +17°C° 0 mm 4 m/s 700 mmHg 65%
04:00 +18°C° 0 mm 4 m/s 700 mmHg 63%
05:00 +18°C° 0 mm 4 m/s 700 mmHg 61%
06:00 +18°C° 0 mm 4 m/s 700 mmHg 59%
07:00 +20°C° 0 mm 6 m/s 701 mmHg 53%
08:00 +22°C° 0 mm 7 m/s 701 mmHg 47%
09:00 +23°C° 0 mm 9 m/s 701 mmHg 41%
10:00 +26°C° 0 mm 9 m/s 701 mmHg 39%
11:00 +27°C° 0 mm 9 m/s 701 mmHg 36%
12:00 +28°C° 0 mm 9 m/s 701 mmHg 34%
13:00 +28°C° 0 mm 9 m/s 701 mmHg 33%
14:00 +29°C° 0 mm 9 m/s 700 mmHg 32%
15:00 +29°C° 0 mm 9 m/s 700 mmHg 31%
16:00 +28°C° 0 mm 8 m/s 700 mmHg 36%
17:00 +26°C° 0 mm 8 m/s 700 mmHg 41%
18:00 +24°C° 0 mm 7 m/s 700 mmHg 46%
19:00 +22°C° 0 mm 6 m/s 701 mmHg 53%
20:00 +21°C° 0 mm 4 m/s 701 mmHg 59%
21:00 +19°C° 0 mm 3 m/s 702 mmHg 66%
22:00 +18°C° 0 mm 3 m/s 701 mmHg 68%
23:00 +18°C° 0 mm 2 m/s 701 mmHg 70%

17 Mai, Lundi

Heure Température Précipitation Vent Pression Humidité
00:00 +17°C° 0 mm 2 m/s 701 mmHg 72%
01:00 +16°C° 0 mm 2 m/s 701 mmHg 73%
02:00 +16°C° 0 mm 2 m/s 701 mmHg 75%
03:00 +15°C° 0 mm 2 m/s 701 mmHg 76%
04:00 +14°C° 0 mm 3 m/s 702 mmHg 74%
05:00 +14°C° 0 mm 3 m/s 702 mmHg 73%
06:00 +14°C° 0 mm 3 m/s 703 mmHg 72%
07:00 +14°C° 0 mm 4 m/s 703 mmHg 68%
08:00 +14°C° 0 mm 4 m/s 703 mmHg 65%
09:00 +14°C° 0 mm 5 m/s 703 mmHg 62%
10:00 +15°C° 0 mm 4 m/s 704 mmHg 60%
11:00 +16°C° 0 mm 3 m/s 704 mmHg 58%
12:00 +17°C° 0 mm 3 m/s 704 mmHg 56%
13:00 +18°C° 0 mm 4 m/s 704 mmHg 51%
14:00 +19°C° 0 mm 5 m/s 704 mmHg 46%
15:00 +20°C° 0 mm 7 m/s 704 mmHg 41%
16:00 +18°C° 0 mm 7 m/s 704 mmHg 44%
17:00 +17°C° 0 mm 8 m/s 704 mmHg 46%
18:00 +16°C° 0 mm 8 m/s 705 mmHg 48%
19:00 +14°C° 0 mm 7 m/s 705 mmHg 49%
20:00 +13°C° 0 mm 5 m/s 706 mmHg 50%
21:00 +11°C° 0 mm 4 m/s 707 mmHg 52%
22:00 +10°C° 0 mm 4 m/s 707 mmHg 53%
23:00 +10°C° 0 mm 4 m/s 707 mmHg 55%

18 Mai, Mardi

Heure Température Précipitation Vent Pression Humidité
00:00 +9°C° 0 mm 3 m/s 707 mmHg 56%
01:00 +9°C° 0 mm 3 m/s 707 mmHg 58%
02:00 +9°C° 0 mm 3 m/s 707 mmHg 59%
03:00 +9°C° 0 mm 3 m/s 707 mmHg 61%
04:00 +9°C° 0 mm 2 m/s 707 mmHg 59%
05:00 +10°C° 0 mm 2 m/s 707 mmHg 57%
06:00 +12°C° 0 mm 1 m/s 707 mmHg 56%
07:00 +14°C° 0 mm 1 m/s 707 mmHg 50%
08:00 +16°C° 0 mm 1 m/s 707 mmHg 44%
09:00 +18°C° 0 mm 1 m/s 707 mmHg 38%
10:00 +19°C° 0 mm 2 m/s 707 mmHg 36%
11:00 +21°C° 0 mm 2 m/s 707 mmHg 34%
12:00 +23°C° 0 mm 2 m/s 706 mmHg 32%
13:00 +24°C° 0 mm 3 m/s 706 mmHg 30%
14:00 +25°C° 0 mm 4 m/s 706 mmHg 29%
15:00 +26°C° 0 mm 4 m/s 705 mmHg 27%
16:00 +25°C° 0 mm 4 m/s 705 mmHg 30%
17:00 +24°C° 0 mm 3 m/s 705 mmHg 32%
18:00 +22°C° 0 mm 3 m/s 705 mmHg 34%
19:00 +21°C° 0 mm 2 m/s 705 mmHg 39%
20:00 +20°C° 0 mm 2 m/s 705 mmHg 44%
21:00 +18°C° 0 mm 2 m/s 705 mmHg 49%
22:00 +18°C° 0 mm 2 m/s 705 mmHg 49%
23:00 +18°C° 0 mm 2 m/s 705 mmHg 49%

19 Mai, Mercredi

Heure Température Précipitation Vent Pression Humidité
00:00 +17°C° 0 mm 2 m/s 705 mmHg 49%
01:00 +17°C° 0 mm 2 m/s 705 mmHg 50%
02:00 +17°C° 0 mm 2 m/s 705 mmHg 51%
03:00 +17°C° 0 mm 2 m/s 705 mmHg 51%
04:00 +17°C° 0 mm 2 m/s 705 mmHg 52%
05:00 +18°C° 0 mm 2 m/s 705 mmHg 52%
06:00 +18°C° 0 mm 2 m/s 705 mmHg 53%
07:00 +20°C° 0 mm 2 m/s 706 mmHg 49%
08:00 +22°C° 0 mm 3 m/s 706 mmHg 44%
09:00 +24°C° 0 mm 3 m/s 706 mmHg 40%
10:00 +26°C° 0 mm 4 m/s 706 mmHg 36%
11:00 +27°C° 0 mm 4 m/s 706 mmHg 32%
12:00 +29°C° 0 mm 4 m/s 706 mmHg 28%
13:00 +29°C° 0 mm 4 m/s 706 mmHg 27%
14:00 +30°C° 0 mm 5 m/s 705 mmHg 25%
15:00 +32°C° 0 mm 5 m/s 705 mmHg 23%
16:00 +30°C° 0 mm 5 m/s 705 mmHg 25%
17:00 +29°C° 0 mm 5 m/s 704 mmHg 27%
18:00 +28°C° 0 mm 6 m/s 704 mmHg 29%
19:00 +26°C° 0 mm 4 m/s 705 mmHg 36%
20:00 +24°C° 0 mm 3 m/s 705 mmHg 43%
21:00 +22°C° 0 mm 1 m/s 705 mmHg 49%
22:00 +20°C° 0 mm 2 m/s 705 mmHg 53%
23:00 +19°C° 0 mm 2 m/s 705 mmHg 57%
Voir plus

Nous avons besoin de votre consentement

Meteoprog et ses fournisseurs de services peuvent stocker et accéder à des données personnelles telles que des cookies, des identifiants d'appareils ou d'autres technologies similaires sur votre appareil et traiter ces données pour personnaliser le contenu et les publicités, ainsi que pour fournir des fonctionnalités de médias sociaux et analyser le trafic.

  • Stocker et/ou accéder à des informations sur votre appareil

    Des cookies, des identifiants d'appareils ou d'autres informations peuvent être stockés ou accessibles sur votre appareil aux fins indiquées ci-dessus.

  • Annonces et contenus personnalisés, mesure des annonces et des contenus, connaissance de l'audience et développement de produits

    Les annonces et le contenu peuvent être personnalisés en fonction d'un profil. D'autres données peuvent être ajoutées pour mieux personnaliser les annonces et le contenu. Les performances des publicités et du contenu peuvent être mesurées. Il est possible d'obtenir des informations sur le public qui a vu les publicités et le contenu. Ces données peuvent être utilisées pour développer ou améliorer l'expérience de l'utilisateur, les systèmes et les logiciels.

En cliquant sur "J'accepte", vous autorisez l'utilisation de cookies, des identifiants d'appareils, des balises web ou d'autres technologies similaires. Vos paramètres peuvent être modifiés dans le navigateur de votre appareil.

Dans certains cas, des intérêts légitimes peuvent être invoqués plutôt qu'un consentement. Vous pouvez en savoir plus à ce sujet dans notre Politique de confidentialité et de cookies.